Satellite: ISS
Catalog number: 25544
Epoch time:      10078.03626584
Element set:     799
Inclination:      051.6474 deg
RA of node:       333.4280 deg
Eccentricity:    0.0007746
Arg of perigee:   067.0877 deg
Mean anomaly:     023.4595 deg
Mean motion:   15.74194950 rev/day
Decay rate:     2.4786e-04 rev/day^2
Epoch rev:           64927
Checksum:              339

Satellite: CO-58
Catalog number: 28895
Epoch time:      10077.71493048
Element set:     539
Inclination:      098.0270 deg
RA of node:       325.1269 deg
Eccentricity:    0.0017444
Arg of perigee:   205.6793 deg
Mean anomaly:     154.3577 deg
Mean motion:   14.59861481 rev/day
Decay rate:       3.87e-06 rev/day^2
Epoch rev:           23378
Checksum:              349

Satellite: FALCON
Catalog number: 30776
Epoch time:      10076.84810829
Element set:     787
Inclination:      035.4334 deg
RA of node:       238.7830 deg
Eccentricity:    0.0000457
Arg of perigee:   017.1842 deg
Mean anomaly:     342.8896 deg
Mean motion:   15.03526439 rev/day
Decay rate:       9.49e-06 rev/day^2
Epoch rev:           16630
Checksum:              316

Satellite: MAST
Catalog number: 31126
Epoch time:      10077.63320789
Element set:     821
Inclination:      097.9486 deg
RA of node:       124.2809 deg
Eccentricity:    0.0094871
Arg of perigee:   147.0287 deg
Mean anomaly:     213.6879 deg
Mean motion:   14.53563547 rev/day
Decay rate:        6.7e-07 rev/day^2
Epoch rev:           15490
Checksum:              325

Satellite: CAPE1
Catalog number: 31130
Epoch time:      10077.52802630
Element set:     840
Inclination:      097.9498 deg
RA of node:       121.7722 deg
Eccentricity:    0.0103422
Arg of perigee:   154.7823 deg
Mean anomaly:     205.8495 deg
Mean motion:   14.52147812 rev/day
Decay rate:       2.29e-06 rev/day^2
Epoch rev:           15450
Checksum:              277

Satellite: COMPASS
Catalog number: 32787
Epoch time:      10077.34806976
Element set:     622
Inclination:      097.9032 deg
RA of node:       143.3223 deg
Eccentricity:    0.0014956
Arg of perigee:   218.8608 deg
Mean anomaly:     141.1594 deg
Mean motion:   14.81793051 rev/day
Decay rate:       6.98e-06 rev/day^2
Epoch rev:           10204
Checksum:              304

Satellite: AAUSAT2
Catalog number: 32788
Epoch time:      10076.68453991
Element set:     616
Inclination:      097.9045 deg
RA of node:       142.7751 deg
Eccentricity:    0.0014334
Arg of perigee:   222.3876 deg
Mean anomaly:     137.6222 deg
Mean motion:   14.81929452 rev/day
Decay rate:       7.27e-06 rev/day^2
Epoch rev:           10195
Checksum:              317

Satellite: DO-64
Catalog number: 32789
Epoch time:      10076.70075396
Element set:     632
Inclination:      097.9092 deg
RA of node:       143.1673 deg
Eccentricity:    0.0015086
Arg of perigee:   219.1357 deg
Mean anomaly:     140.8728 deg
Mean motion:   14.82017414 rev/day
Decay rate:      1.083e-05 rev/day^2
Epoch rev:           10195
Checksum:              309

Satellite: CO-66
Catalog number: 32791
Epoch time:      10076.68182577
Element set:     613
Inclination:      097.9060 deg
RA of node:       142.6885 deg
Eccentricity:    0.0015176
Arg of perigee:   219.0635 deg
Mean anomaly:     140.9473 deg
Mean motion:   14.81592083 rev/day
Decay rate:       5.11e-06 rev/day^2
Epoch rev:           10190
Checksum:              310

Satellite: RS-30
Catalog number: 32953
Epoch time:      10077.57864575
Element set:     551
Inclination:      082.4967 deg
RA of node:       086.0250 deg
Eccentricity:    0.0017664
Arg of perigee:   303.3710 deg
Mean anomaly:     056.5685 deg
Mean motion:   12.43004331 rev/day
Decay rate:        1.0e-07 rev/day^2
Epoch rev:            8248
Checksum:              286

Satellite: TACSAT-3
Catalog number: 35001
Epoch time:      10077.33931542
Element set:     240
Inclination:      040.4555 deg
RA of node:       039.4594 deg
Eccentricity:    0.0022174
Arg of perigee:   040.5552 deg
Mean anomaly:     319.6911 deg
Mean motion:   15.40758229 rev/day
Decay rate:      8.895e-05 rev/day^2
Epoch rev:            4661
Checksum:              286

Satellite: PHARMSAT
Catalog number: 35002
Epoch time:      10077.26168695
Element set:     228
Inclination:      040.4697 deg
RA of node:       038.2820 deg
Eccentricity:    0.0024127
Arg of perigee:   045.4710 deg
Mean anomaly:     314.8070 deg
Mean motion:   15.41374031 rev/day
Decay rate:      7.870e-05 rev/day^2
Epoch rev:            4661
Checksum:              269

Satellite: HAWKSAT1
Catalog number: 35003
Epoch time:      10077.26273449
Element set:     242
Inclination:      040.4603 deg
RA of node:       035.3545 deg
Eccentricity:    0.0023214
Arg of perigee:   052.6333 deg
Mean anomaly:     307.6592 deg
Mean motion:   15.43458738 rev/day
Decay rate:     1.5767e-04 rev/day^2
Epoch rev:            4665
Checksum:              282

Satellite: CP6
Catalog number: 35004
Epoch time:      10077.88156240
Element set:     235
Inclination:      040.4578 deg
RA of node:       031.2524 deg
Eccentricity:    0.0021708
Arg of perigee:   059.3713 deg
Mean anomaly:     300.9257 deg
Mean motion:   15.43960321 rev/day
Decay rate:     1.8080e-04 rev/day^2
Epoch rev:            4674
Checksum:              273

